BEL126 CYPR-PASI

Flight info

Callsign BEL126
Flight time 1h 36m
Altitude 10000
Route WAZUR V309 ANN V311 BKA
Aircraft DC3/M-SDF/S

Departure

Time 2026-05-04 17:57
Airport Prince Rupert Airport (CYPR)

Arrival

Time 2026-05-04 19:33
Airport Sitka Rocky Gutierrez Airport (PASI)
Time Latitude Longitude Altitude Speed Heading
2026-05-04 17:31 54.29188 -130.44621 108 ft 0 kts 114°
2026-05-04 17:45 54.29184 -130.44603 109 ft 6 kts 97°
2026-05-04 17:46 54.29208 -130.44625 103 ft 6 kts 303°
2026-05-04 17:46 54.29179 -130.44659 98 ft 7 kts 156°
2026-05-04 17:46 54.29143 -130.44629 103 ft 6 kts 153°
2026-05-04 17:46 54.29107 -130.44597 103 ft 7 kts 150°
2026-05-04 17:47 54.29060 -130.44612 96 ft 10 kts 241°
2026-05-04 17:47 54.29033 -130.44701 96 ft 3 kts 238°
2026-05-04 17:47 54.29032 -130.44702 96 ft 0 kts 235°
2026-05-04 17:53 54.29021 -130.44731 96 ft 9 kts 237°
2026-05-04 17:53 54.28988 -130.44793 97 ft 5 kts 172°
2026-05-04 17:53 54.28905 -130.44733 101 ft 20 kts 154°
2026-05-04 17:53 54.28754 -130.44601 101 ft 29 kts 153°
2026-05-04 17:54 54.28568 -130.44438 103 ft 30 kts 152°
2026-05-04 17:54 54.28369 -130.44258 110 ft 35 kts 150°
2026-05-04 17:54 54.28179 -130.44083 116 ft 27 kts 152°
2026-05-04 17:54 54.28039 -130.43951 117 ft 20 kts 151°
2026-05-04 17:55 54.27939 -130.43823 116 ft 16 kts 121°
2026-05-04 17:55 54.27917 -130.43836 119 ft 10 kts
2026-05-04 17:55 54.27939 -130.43859 116 ft 0 kts 332°
2026-05-04 17:56 54.27994 -130.43910 116 ft 34 kts 331°
2026-05-04 17:56 54.28364 -130.44253 110 ft 83 kts 332°
2026-05-04 17:56 54.28942 -130.44797 243 ft 95 kts 332°
2026-05-04 17:57 54.29566 -130.45424 402 ft 109 kts 331°
2026-05-04 17:57 54.30160 -130.46281 653 ft 117 kts 301°
2026-05-04 17:57 54.30683 -130.47355 881 ft 120 kts 316°
2026-05-04 17:57 54.31295 -130.48327 1141 ft 120 kts 319°
2026-05-04 17:58 54.31932 -130.49276 1391 ft 122 kts 321°
2026-05-04 17:58 54.32585 -130.50232 1653 ft 125 kts 322°
2026-05-04 17:58 54.33259 -130.51204 1914 ft 128 kts 323°
2026-05-04 17:58 54.33944 -130.52191 2163 ft 129 kts 323°
2026-05-04 17:59 54.34632 -130.53185 2418 ft 130 kts 323°
2026-05-04 17:59 54.35329 -130.54192 2667 ft 132 kts 324°
2026-05-04 17:59 54.36746 -130.56240 3167 ft 135 kts 323°
2026-05-04 18:00 54.37465 -130.57282 3412 ft 136 kts 323°
2026-05-04 18:00 54.38194 -130.58336 3659 ft 138 kts 323°
2026-05-04 18:00 54.38919 -130.59384 3901 ft 138 kts 323°
2026-05-04 18:00 54.39655 -130.60452 4151 ft 139 kts 323°
2026-05-04 18:01 54.40392 -130.61523 4400 ft 139 kts 323°
2026-05-04 18:01 54.41128 -130.62590 4656 ft 139 kts 323°
2026-05-04 18:01 54.41865 -130.63658 4903 ft 138 kts 323°
2026-05-04 18:02 54.43335 -130.65793 5394 ft 138 kts 322°
2026-05-04 18:02 54.44068 -130.66858 5640 ft 138 kts 323°
2026-05-04 18:02 54.44798 -130.67920 5890 ft 137 kts 322°
2026-05-04 18:02 54.45526 -130.68980 6141 ft 137 kts 322°
2026-05-04 18:03 54.46253 -130.70038 6396 ft 137 kts 322°
2026-05-04 18:03 54.46978 -130.71093 6630 ft 136 kts 322°
2026-05-04 18:03 54.47701 -130.72146 6866 ft 136 kts 322°
2026-05-04 18:03 54.48421 -130.73196 7104 ft 135 kts 322°
2026-05-04 18:04 54.49138 -130.74242 7343 ft 135 kts 322°
2026-05-04 18:04 54.49845 -130.75273 7583 ft 135 kts 322°
2026-05-04 18:04 54.51276 -130.77361 8071 ft 135 kts 322°
2026-05-04 18:05 54.51991 -130.78406 8320 ft 135 kts 322°
2026-05-04 18:05 54.52712 -130.79459 8494 ft 141 kts 322°
2026-05-04 18:05 54.53498 -130.80604 8499 ft 154 kts 322°
2026-05-04 18:05 54.54336 -130.81830 8503 ft 162 kts 321°
2026-05-04 18:06 54.56106 -130.84423 8507 ft 171 kts 321°
2026-05-04 18:06 54.57018 -130.85760 8511 ft 173 kts 321°
2026-05-04 18:06 54.57941 -130.87114 8509 ft 175 kts 321°
2026-05-04 18:07 54.58873 -130.88482 8509 ft 176 kts 321°
2026-05-04 18:07 54.59803 -130.89852 8509 ft 176 kts 321°
2026-05-04 18:07 54.60735 -130.91220 8510 ft 176 kts 321°
2026-05-04 18:07 54.61667 -130.92589 8510 ft 177 kts 321°
2026-05-04 18:08 54.62602 -130.93966 8509 ft 177 kts 321°
2026-05-04 18:08 54.63537 -130.95343 8509 ft 177 kts 321°
2026-05-04 18:08 54.64473 -130.96722 8509 ft 177 kts 321°
2026-05-04 18:08 54.65406 -130.98097 8509 ft 176 kts 321°
2026-05-04 18:09 54.67275 -131.00855 8509 ft 177 kts 321°
2026-05-04 18:09 54.69129 -131.03594 8509 ft 177 kts 321°
2026-05-04 18:10 54.70063 -131.04974 8509 ft 177 kts 321°
2026-05-04 18:10 54.71005 -131.06342 8509 ft 177 kts 322°
2026-05-04 18:10 54.71948 -131.07706 8506 ft 177 kts 321°
2026-05-04 18:10 54.72885 -131.09080 8506 ft 176 kts 321°
2026-05-04 18:11 54.73826 -131.10437 8510 ft 176 kts 322°
2026-05-04 18:11 54.74763 -131.11796 8510 ft 176 kts 321°
2026-05-04 18:11 54.75698 -131.13161 8503 ft 176 kts 321°
2026-05-04 18:11 54.76632 -131.14524 8509 ft 175 kts 321°
2026-05-04 18:12 54.77566 -131.15887 8507 ft 175 kts 321°
2026-05-04 18:12 54.78499 -131.17249 8506 ft 175 kts 321°
2026-05-04 18:12 54.79432 -131.18612 8506 ft 175 kts 321°
2026-05-04 18:12 54.80365 -131.19976 8506 ft 175 kts 321°
2026-05-04 18:13 54.81296 -131.21337 8520 ft 175 kts 321°
2026-05-04 18:13 54.82229 -131.22702 8521 ft 176 kts 321°
2026-05-04 18:13 54.84098 -131.25439 8521 ft 176 kts 321°
2026-05-04 18:14 54.85035 -131.26812 8517 ft 176 kts 321°
2026-05-04 18:14 54.85958 -131.28166 8518 ft 176 kts 321°
2026-05-04 18:14 54.86867 -131.29508 8507 ft 167 kts 321°
2026-05-04 18:15 54.88580 -131.32020 8507 ft 157 kts 321°
2026-05-04 18:15 54.90215 -131.34426 8514 ft 152 kts 321°
2026-05-04 18:15 54.91021 -131.35612 8514 ft 151 kts 321°
2026-05-04 18:16 54.91820 -131.36788 8512 ft 150 kts 321°
2026-05-04 18:16 54.92620 -131.37966 8513 ft 151 kts 321°
2026-05-04 18:16 54.93420 -131.39143 8509 ft 150 kts 321°
2026-05-04 18:17 54.95003 -131.41484 8512 ft 150 kts 321°
2026-05-04 18:17 54.95800 -131.42659 8515 ft 152 kts 321°
2026-05-04 18:17 54.97401 -131.45025 8511 ft 150 kts 321°
2026-05-04 18:18 54.98196 -131.46200 8519 ft 150 kts 321°
2026-05-04 18:18 54.98988 -131.47372 8519 ft 149 kts 321°
2026-05-04 18:18 54.99777 -131.48541 8519 ft 149 kts 321°
2026-05-04 18:18 55.00566 -131.49710 8519 ft 149 kts 321°
2026-05-04 18:19 55.02134 -131.52035 8523 ft 149 kts 321°
2026-05-04 18:19 55.02924 -131.53208 8524 ft 149 kts 321°
2026-05-04 18:19 55.03715 -131.54378 8525 ft 150 kts 322°
2026-05-04 18:20 55.04510 -131.55561 8515 ft 151 kts 320°
2026-05-04 18:20 55.05300 -131.56758 8523 ft 151 kts 321°
2026-05-04 18:20 55.06096 -131.57957 8532 ft 152 kts 316°
2026-05-04 18:20 55.06792 -131.59360 8531 ft 153 kts 313°
2026-05-04 18:21 55.07484 -131.60775 8535 ft 153 kts 313°
2026-05-04 18:21 55.08174 -131.62185 8535 ft 152 kts 313°
2026-05-04 18:21 55.08860 -131.63585 8534 ft 151 kts 313°
2026-05-04 18:21 55.09543 -131.64980 8535 ft 151 kts 313°
2026-05-04 18:22 55.10225 -131.66374 8531 ft 150 kts 313°
2026-05-04 18:22 55.10903 -131.67760 8528 ft 150 kts 313°
2026-05-04 18:22 55.11581 -131.69148 8530 ft 150 kts 313°
2026-05-04 18:22 55.12258 -131.70534 8532 ft 150 kts 313°
2026-05-04 18:23 55.12933 -131.71915 8531 ft 150 kts 313°
2026-05-04 18:23 55.13608 -131.73300 8532 ft 149 kts 313°
2026-05-04 18:23 55.14279 -131.74675 8536 ft 149 kts 313°
2026-05-04 18:23 55.14958 -131.76050 8533 ft 150 kts 313°
2026-05-04 18:24 55.15628 -131.77417 8525 ft 150 kts 313°
2026-05-04 18:24 55.16295 -131.78814 8532 ft 149 kts 313°
2026-05-04 18:24 55.16963 -131.80200 8532 ft 149 kts 313°
2026-05-04 18:24 55.17634 -131.81573 8534 ft 148 kts 313°
2026-05-04 18:25 55.18303 -131.82947 8529 ft 149 kts 313°
2026-05-04 18:25 55.18974 -131.84325 8533 ft 149 kts 313°
2026-05-04 18:25 55.19644 -131.85704 8534 ft 149 kts 313°
2026-05-04 18:25 55.20313 -131.87083 8534 ft 148 kts 313°
2026-05-04 18:26 55.20983 -131.88462 8537 ft 149 kts 313°
2026-05-04 18:26 55.21652 -131.89842 8539 ft 149 kts 313°
2026-05-04 18:26 55.22322 -131.91225 8540 ft 149 kts 313°
2026-05-04 18:26 55.22991 -131.92607 8540 ft 149 kts 313°
2026-05-04 18:27 55.23660 -131.93989 8532 ft 148 kts 313°
2026-05-04 18:27 55.24327 -131.95368 8529 ft 148 kts 313°
2026-05-04 18:27 55.24993 -131.96746 8536 ft 148 kts 313°
2026-05-04 18:27 55.25651 -131.98109 8536 ft 149 kts 313°
2026-05-04 18:28 55.26319 -131.99493 8540 ft 149 kts 313°
2026-05-04 18:28 55.26987 -132.00876 8537 ft 149 kts 313°
2026-05-04 18:28 55.27655 -132.02262 8535 ft 149 kts 313°
2026-05-04 18:28 55.28321 -132.03646 8545 ft 149 kts 313°
2026-05-04 18:29 55.28991 -132.05036 8544 ft 149 kts 313°
2026-05-04 18:29 55.29660 -132.06424 8543 ft 148 kts 313°
2026-05-04 18:29 55.30324 -132.07805 8545 ft 148 kts 313°
2026-05-04 18:29 55.30989 -132.09187 8543 ft 148 kts 313°
2026-05-04 18:30 55.32317 -132.11951 8547 ft 148 kts 313°
2026-05-04 18:30 55.32983 -132.13339 8550 ft 149 kts 313°
2026-05-04 18:30 55.33650 -132.14728 8550 ft 149 kts 313°
2026-05-04 18:31 55.34318 -132.16122 8556 ft 149 kts 313°
2026-05-04 18:31 55.34995 -132.17531 8554 ft 152 kts 313°
2026-05-04 18:31 55.35674 -132.18953 8570 ft 151 kts 313°
2026-05-04 18:31 55.36355 -132.20377 8572 ft 152 kts 313°
2026-05-04 18:32 55.37036 -132.21798 8570 ft 152 kts 313°
2026-05-04 18:32 55.37716 -132.23221 8562 ft 152 kts 313°
2026-05-04 18:32 55.38395 -132.24641 8566 ft 151 kts 313°
2026-05-04 18:32 55.39062 -132.26040 8571 ft 152 kts 313°
2026-05-04 18:33 55.39739 -132.27458 8572 ft 151 kts 313°
2026-05-04 18:33 55.40416 -132.28877 8572 ft 151 kts 313°
2026-05-04 18:33 55.41093 -132.30298 8571 ft 152 kts 313°
2026-05-04 18:33 55.41771 -132.31719 8570 ft 151 kts 313°
2026-05-04 18:34 55.42445 -132.33136 8569 ft 151 kts 313°
2026-05-04 18:34 55.43119 -132.34552 8576 ft 150 kts 313°
2026-05-04 18:34 55.43789 -132.35962 8567 ft 150 kts 313°
2026-05-04 18:34 55.44461 -132.37374 8576 ft 151 kts 313°
2026-05-04 18:35 55.45133 -132.38793 8576 ft 151 kts 312°
2026-05-04 18:35 55.45812 -132.40220 8577 ft 152 kts 313°
2026-05-04 18:35 55.46491 -132.41644 8575 ft 151 kts 313°
2026-05-04 18:35 55.47162 -132.43064 8576 ft 151 kts 312°
2026-05-04 18:36 55.47831 -132.44482 8577 ft 151 kts 313°
2026-05-04 18:36 55.48509 -132.45908 8569 ft 152 kts 313°
2026-05-04 18:36 55.49176 -132.47316 8580 ft 152 kts 313°
2026-05-04 18:36 55.49858 -132.48755 8576 ft 153 kts 312°
2026-05-04 18:37 55.50533 -132.50190 8570 ft 151 kts 313°
2026-05-04 18:37 55.51207 -132.51617 8576 ft 151 kts 313°
2026-05-04 18:37 55.51885 -132.53041 8576 ft 152 kts 313°
2026-05-04 18:37 55.52559 -132.54476 8575 ft 151 kts 312°
2026-05-04 18:38 55.53231 -132.55905 8572 ft 151 kts 312°
2026-05-04 18:38 55.53902 -132.57327 8571 ft 151 kts 313°
2026-05-04 18:38 55.54574 -132.58753 8573 ft 151 kts 313°
2026-05-04 18:38 55.55238 -132.60162 8564 ft 151 kts 312°
2026-05-04 18:39 55.55912 -132.61595 8553 ft 152 kts 313°
2026-05-04 18:39 55.56586 -132.63026 8561 ft 151 kts 313°
2026-05-04 18:39 55.57257 -132.64454 8561 ft 151 kts 313°
2026-05-04 18:39 55.57928 -132.65880 8559 ft 151 kts 313°
2026-05-04 18:40 55.58372 -132.66827 8560 ft 151 kts 312°
2026-05-04 18:40 55.59047 -132.68264 8553 ft 152 kts 313°
2026-05-04 18:40 55.59725 -132.69706 8556 ft 152 kts 313°
2026-05-04 18:40 55.60397 -132.71140 8559 ft 151 kts 312°
2026-05-04 18:41 55.61068 -132.72575 8555 ft 152 kts 312°
2026-05-04 18:41 55.61742 -132.74012 8554 ft 151 kts 312°
2026-05-04 18:41 55.62415 -132.75449 8555 ft 152 kts 313°
2026-05-04 18:41 55.63087 -132.76883 8555 ft 151 kts 312°
2026-05-04 18:42 55.63755 -132.78314 8550 ft 151 kts 312°
2026-05-04 18:42 55.64424 -132.79744 8554 ft 151 kts 312°
2026-05-04 18:42 55.65094 -132.81178 8546 ft 151 kts 312°
2026-05-04 18:42 55.65761 -132.82607 8549 ft 150 kts 312°
2026-05-04 18:43 55.66433 -132.84034 8553 ft 152 kts 312°
2026-05-04 18:43 55.67100 -132.85480 8552 ft 151 kts 312°
2026-05-04 18:43 55.67768 -132.86918 8546 ft 151 kts 312°
2026-05-04 18:43 55.68438 -132.88354 8550 ft 152 kts 312°
2026-05-04 18:44 55.69102 -132.89776 8542 ft 152 kts 312°
2026-05-04 18:44 55.69556 -132.90754 8549 ft 151 kts 313°
2026-05-04 18:44 55.70434 -132.92660 8557 ft 149 kts 314°
2026-05-04 18:44 55.71105 -132.94092 8556 ft 151 kts 312°
2026-05-04 18:45 55.71770 -132.95530 8543 ft 151 kts 312°
2026-05-04 18:45 55.72445 -132.96975 8550 ft 151 kts 312°
2026-05-04 18:45 55.73111 -132.98404 8551 ft 151 kts 312°
2026-05-04 18:45 55.73770 -132.99846 8547 ft 150 kts 313°
2026-05-04 18:46 55.74427 -133.01262 8552 ft 146 kts 313°
2026-05-04 18:46 55.75073 -133.02650 8550 ft 146 kts 313°
2026-05-04 18:46 55.75716 -133.04040 8556 ft 147 kts 313°
2026-05-04 18:46 55.76362 -133.05448 8561 ft 148 kts 313°
2026-05-04 18:47 55.77026 -133.06870 8557 ft 150 kts 313°
2026-05-04 18:47 55.77684 -133.08305 8558 ft 151 kts 312°
2026-05-04 18:47 55.78353 -133.09753 8551 ft 150 kts 313°
2026-05-04 18:47 55.79011 -133.11179 8554 ft 151 kts 312°
2026-05-04 18:48 55.79670 -133.12618 8574 ft 150 kts 313°
2026-05-04 18:48 55.80339 -133.14066 8579 ft 150 kts 314°
2026-05-04 18:48 55.80994 -133.15483 8578 ft 148 kts 313°
2026-05-04 18:48 55.81642 -133.16893 8573 ft 148 kts 313°
2026-05-04 18:49 55.82297 -133.18320 8570 ft 148 kts 312°
2026-05-04 18:49 55.82946 -133.19729 8571 ft 147 kts 313°
2026-05-04 18:49 55.83591 -133.21137 8570 ft 147 kts 313°
2026-05-04 18:49 55.84241 -133.22552 8569 ft 146 kts 313°
2026-05-04 18:50 55.84883 -133.23952 8576 ft 147 kts 313°
2026-05-04 18:50 55.85534 -133.25373 8575 ft 148 kts 312°
2026-05-04 18:50 55.86182 -133.26782 8576 ft 148 kts 313°
2026-05-04 18:50 55.86836 -133.28215 8573 ft 148 kts 313°
2026-05-04 18:51 55.87482 -133.29629 8571 ft 148 kts 313°
2026-05-04 18:51 55.88131 -133.31048 8573 ft 148 kts 313°
2026-05-04 18:51 55.88781 -133.32467 8578 ft 149 kts 312°
2026-05-04 18:51 55.89433 -133.33896 8577 ft 149 kts 313°
2026-05-04 18:52 55.90090 -133.35339 8579 ft 149 kts 313°
2026-05-04 18:52 55.90742 -133.36765 8582 ft 148 kts 312°
2026-05-04 18:52 55.91387 -133.38179 8582 ft 148 kts 313°
2026-05-04 18:52 55.92031 -133.39593 8581 ft 148 kts 312°
2026-05-04 18:53 55.92688 -133.41035 8579 ft 148 kts 313°
2026-05-04 18:53 55.93336 -133.42458 8578 ft 149 kts 312°
2026-05-04 18:53 55.93985 -133.43885 8578 ft 148 kts 313°
2026-05-04 18:53 55.94636 -133.45319 8580 ft 148 kts 312°
2026-05-04 18:54 55.95280 -133.46737 8584 ft 148 kts 312°
2026-05-04 18:54 55.95929 -133.48172 8587 ft 149 kts 312°
2026-05-04 18:54 55.96598 -133.49625 8582 ft 151 kts 312°
2026-05-04 18:54 55.97251 -133.51073 8578 ft 150 kts 312°
2026-05-04 18:55 55.97898 -133.52511 8580 ft 149 kts 312°
2026-05-04 18:55 55.99198 -133.55385 8581 ft 149 kts 312°
2026-05-04 18:55 55.99854 -133.56834 8587 ft 149 kts 312°
2026-05-04 18:56 56.00499 -133.58256 8584 ft 148 kts 312°
2026-05-04 18:56 56.01150 -133.59702 8581 ft 149 kts 312°
2026-05-04 18:56 56.01793 -133.61128 8571 ft 150 kts 311°
2026-05-04 18:56 56.02453 -133.62590 8587 ft 150 kts 312°
2026-05-04 18:57 56.03105 -133.64033 8582 ft 149 kts 311°
2026-05-04 18:57 56.03753 -133.65467 8587 ft 148 kts 312°
2026-05-04 18:57 56.04402 -133.66914 8585 ft 149 kts 311°
2026-05-04 18:57 56.05050 -133.68353 8585 ft 149 kts 312°
2026-05-04 18:58 56.05701 -133.69792 8582 ft 149 kts 311°
2026-05-04 18:58 56.06356 -133.71247 8584 ft 150 kts 311°
2026-05-04 18:58 56.07007 -133.72691 8581 ft 150 kts 311°
2026-05-04 18:58 56.07665 -133.74157 8584 ft 150 kts 311°
2026-05-04 18:59 56.08312 -133.75602 8584 ft 150 kts 311°
2026-05-04 18:59 56.08964 -133.77057 8584 ft 150 kts 311°
2026-05-04 18:59 56.09619 -133.78519 8587 ft 149 kts 311°
2026-05-04 18:59 56.10267 -133.79964 8587 ft 150 kts 311°
2026-05-04 19:00 56.10915 -133.81412 8589 ft 150 kts 311°
2026-05-04 19:00 56.11564 -133.82861 8589 ft 149 kts 311°
2026-05-04 19:00 56.12218 -133.84325 8589 ft 149 kts 311°
2026-05-04 19:00 56.12865 -133.85772 8582 ft 149 kts 311°
2026-05-04 19:01 56.13510 -133.87217 8590 ft 149 kts 311°
2026-05-04 19:01 56.14163 -133.88680 8586 ft 149 kts 311°
2026-05-04 19:01 56.14817 -133.90143 8590 ft 149 kts 311°
2026-05-04 19:01 56.15461 -133.91589 8590 ft 150 kts 311°
2026-05-04 19:02 56.16109 -133.93043 8590 ft 150 kts 311°
2026-05-04 19:02 56.16763 -133.94513 8599 ft 150 kts 311°
2026-05-04 19:02 56.17414 -133.95981 8604 ft 152 kts 311°
2026-05-04 19:02 56.18077 -133.97471 8596 ft 153 kts 312°
2026-05-04 19:03 56.18752 -133.98972 8597 ft 152 kts 311°
2026-05-04 19:03 56.19405 -134.00452 8596 ft 152 kts 311°
2026-05-04 19:03 56.20061 -134.01930 8595 ft 152 kts 311°
2026-05-04 19:03 56.20706 -134.03404 8604 ft 148 kts 311°
2026-05-04 19:04 56.21354 -134.04849 8609 ft 149 kts 311°
2026-05-04 19:04 56.22005 -134.06313 8605 ft 151 kts 311°
2026-05-04 19:04 56.22662 -134.07799 8605 ft 151 kts 311°
2026-05-04 19:04 56.23311 -134.09267 8604 ft 150 kts 311°
2026-05-04 19:05 56.23960 -134.10728 8611 ft 150 kts 311°
2026-05-04 19:05 56.24614 -134.12208 8611 ft 150 kts 310°
2026-05-04 19:05 56.25260 -134.13674 8624 ft 151 kts 311°
2026-05-04 19:05 56.25907 -134.15166 8606 ft 151 kts 309°
2026-05-04 19:06 56.26571 -134.16656 8612 ft 150 kts 311°
2026-05-04 19:06 56.27223 -134.18129 8603 ft 151 kts 310°
2026-05-04 19:06 56.27878 -134.19608 8609 ft 151 kts 310°
2026-05-04 19:06 56.28537 -134.21091 8612 ft 153 kts 310°
2026-05-04 19:07 56.29201 -134.22614 8611 ft 153 kts 310°
2026-05-04 19:07 56.29854 -134.24098 8605 ft 152 kts 311°
2026-05-04 19:07 56.30516 -134.25603 8610 ft 153 kts 310°
2026-05-04 19:07 56.31171 -134.27095 8613 ft 153 kts 310°
2026-05-04 19:08 56.31833 -134.28606 8619 ft 152 kts 310°
2026-05-04 19:08 56.32489 -134.30101 8606 ft 152 kts 310°
2026-05-04 19:08 56.33142 -134.31591 8616 ft 151 kts 310°
2026-05-04 19:08 56.33794 -134.33078 8612 ft 151 kts 310°
2026-05-04 19:09 56.34445 -134.34564 8617 ft 151 kts 310°
2026-05-04 19:09 56.35095 -134.36050 8619 ft 151 kts 310°
2026-05-04 19:09 56.35745 -134.37534 8619 ft 151 kts 310°
2026-05-04 19:09 56.36394 -134.39018 8619 ft 151 kts 310°
2026-05-04 19:10 56.37044 -134.40505 8618 ft 151 kts 310°
2026-05-04 19:10 56.37692 -134.41991 8614 ft 151 kts 310°
2026-05-04 19:10 56.38340 -134.43475 8608 ft 151 kts 310°
2026-05-04 19:10 56.38988 -134.44960 8624 ft 151 kts 310°
2026-05-04 19:11 56.39635 -134.46446 8628 ft 151 kts 310°
2026-05-04 19:11 56.40289 -134.47948 8630 ft 154 kts 310°
2026-05-04 19:11 56.40947 -134.49456 8631 ft 156 kts 310°
2026-05-04 19:11 56.41619 -134.50999 8632 ft 157 kts 310°
2026-05-04 19:12 56.42296 -134.52558 8630 ft 158 kts 310°
2026-05-04 19:12 56.43658 -134.55697 8630 ft 159 kts 310°
2026-05-04 19:12 56.44343 -134.57275 8630 ft 159 kts 310°
2026-05-04 19:13 56.45028 -134.58854 8625 ft 160 kts 310°
2026-05-04 19:13 56.45713 -134.60436 8630 ft 160 kts 310°
2026-05-04 19:13 56.46398 -134.62024 8625 ft 160 kts 310°
2026-05-04 19:13 56.47083 -134.63608 8630 ft 160 kts 310°
2026-05-04 19:14 56.47772 -134.65201 8622 ft 162 kts 310°
2026-05-04 19:14 56.48463 -134.66808 8630 ft 162 kts 310°
2026-05-04 19:14 56.49166 -134.68412 8616 ft 162 kts 309°
2026-05-04 19:14 56.49865 -134.70033 8630 ft 164 kts 310°
2026-05-04 19:15 56.50586 -134.71652 8607 ft 165 kts 312°
2026-05-04 19:15 56.51281 -134.73291 8614 ft 163 kts 308°
2026-05-04 19:15 56.51957 -134.74905 8618 ft 162 kts 309°
2026-05-04 19:15 56.52645 -134.76533 8622 ft 163 kts 309°
2026-05-04 19:16 56.53349 -134.78150 8615 ft 162 kts 310°
2026-05-04 19:16 56.54014 -134.79719 8632 ft 154 kts 311°
2026-05-04 19:16 56.54691 -134.81265 8628 ft 159 kts 310°
2026-05-04 19:16 56.55380 -134.82850 8628 ft 160 kts 310°
2026-05-04 19:17 56.56063 -134.84436 8631 ft 160 kts 310°
2026-05-04 19:17 56.56756 -134.86043 8637 ft 163 kts 310°
2026-05-04 19:17 56.57455 -134.87683 8620 ft 165 kts 309°
2026-05-04 19:17 56.58146 -134.89317 8619 ft 162 kts 310°
2026-05-04 19:18 56.58844 -134.90939 8616 ft 164 kts 309°
2026-05-04 19:18 56.59536 -134.92571 8613 ft 162 kts 309°
2026-05-04 19:18 56.60224 -134.94176 8614 ft 161 kts 309°
2026-05-04 19:18 56.60901 -134.95766 8613 ft 162 kts 309°
2026-05-04 19:19 56.61593 -134.97375 8612 ft 161 kts 309°
2026-05-04 19:19 56.62280 -134.98984 8612 ft 161 kts 309°
2026-05-04 19:19 56.62967 -135.00596 8611 ft 161 kts 309°
2026-05-04 19:19 56.63651 -135.02204 8608 ft 161 kts 309°
2026-05-04 19:20 56.64333 -135.03800 8620 ft 159 kts 309°
2026-05-04 19:20 56.65011 -135.05400 8622 ft 161 kts 309°
2026-05-04 19:20 56.65696 -135.07013 8609 ft 161 kts 309°
2026-05-04 19:20 56.66378 -135.08621 8620 ft 161 kts 309°
2026-05-04 19:21 56.67064 -135.10228 8621 ft 160 kts 309°
2026-05-04 19:21 56.67747 -135.11844 8607 ft 161 kts 309°
2026-05-04 19:21 56.68434 -135.13465 8616 ft 162 kts 309°
2026-05-04 19:21 56.69123 -135.15091 8606 ft 162 kts 309°
2026-05-04 19:22 56.69809 -135.16709 8616 ft 162 kts 308°
2026-05-04 19:22 56.70495 -135.18331 8615 ft 161 kts 309°
2026-05-04 19:22 56.71181 -135.19953 8615 ft 161 kts 309°
2026-05-04 19:22 56.71856 -135.21550 8615 ft 161 kts 309°
2026-05-04 19:23 56.72540 -135.23170 8615 ft 161 kts 309°
2026-05-04 19:23 56.73223 -135.24792 8612 ft 162 kts 308°
2026-05-04 19:23 56.73909 -135.26418 8606 ft 161 kts 309°
2026-05-04 19:23 56.74594 -135.28041 8616 ft 162 kts 309°
2026-05-04 19:24 56.75278 -135.29665 8613 ft 161 kts 309°
2026-05-04 19:24 56.75962 -135.31289 8613 ft 162 kts 309°
2026-05-04 19:24 56.76646 -135.32916 8613 ft 162 kts 308°
2026-05-04 19:24 56.77330 -135.34546 8613 ft 162 kts 308°
2026-05-04 19:25 56.78013 -135.36170 8610 ft 161 kts 309°
2026-05-04 19:25 56.78697 -135.37790 8612 ft 161 kts 308°
2026-05-04 19:25 56.79375 -135.39413 8606 ft 161 kts 308°
2026-05-04 19:25 56.80052 -135.41034 8612 ft 161 kts 307°
2026-05-04 19:26 56.80731 -135.42660 8609 ft 161 kts 308°
2026-05-04 19:26 56.81412 -135.44284 8607 ft 161 kts 308°
2026-05-04 19:26 56.82092 -135.45907 8599 ft 161 kts 307°
2026-05-04 19:26 56.82761 -135.47510 8609 ft 161 kts 308°
2026-05-04 19:27 56.83441 -135.49134 8609 ft 161 kts 307°
2026-05-04 19:27 56.84120 -135.50760 8611 ft 161 kts 308°
2026-05-04 19:27 56.84836 -135.52329 8578 ft 162 kts 317°
2026-05-04 19:27 56.85811 -135.53364 8324 ft 164 kts 340°
2026-05-04 19:28 56.86939 -135.53615 8068 ft 165 kts
2026-05-04 19:28 56.87684 -135.53309 7905 ft 166 kts 17°
2026-05-04 19:28 56.88716 -135.52334 7612 ft 169 kts 26°
2026-05-04 19:28 56.89759 -135.51284 7251 ft 173 kts 26°
2026-05-04 19:29 56.90816 -135.50208 6890 ft 172 kts 26°
2026-05-04 19:29 56.91813 -135.49187 6542 ft 157 kts 26°
2026-05-04 19:29 56.92760 -135.48232 6161 ft 154 kts 26°
2026-05-04 19:29 56.93698 -135.47291 5785 ft 153 kts 27°
2026-05-04 19:30 56.94623 -135.46344 5417 ft 152 kts 26°
2026-05-04 19:30 56.95544 -135.45412 5032 ft 151 kts 27°
2026-05-04 19:30 56.96461 -135.44482 4656 ft 150 kts 26°
2026-05-04 19:30 56.97369 -135.43562 4277 ft 149 kts 27°
2026-05-04 19:31 56.98272 -135.42639 3903 ft 146 kts 28°
2026-05-04 19:31 56.99157 -135.41740 3434 ft 146 kts 28°
2026-05-04 19:31 57.00045 -135.40836 2933 ft 146 kts 29°
2026-05-04 19:31 57.00934 -135.39931 2397 ft 146 kts 29°
2026-05-04 19:32 57.01704 -135.39053 1859 ft 119 kts 42°
2026-05-04 19:32 57.02148 -135.37844 1371 ft 111 kts 57°
2026-05-04 19:32 57.02530 -135.36702 1057 ft 94 kts 57°
2026-05-04 19:32 57.02880 -135.35725 712 ft 91 kts 52°
2026-05-04 19:33 57.03281 -135.34816 368 ft 92 kts 41°
2026-05-04 19:33 57.03829 -135.34647 124 ft 79 kts 329°
2026-05-04 19:33 57.04220 -135.35281 30 ft 65 kts 314°
2026-05-04 19:33 57.04473 -135.35729 29 ft 39 kts 316°
2026-05-04 19:34 57.04629 -135.36015 32 ft 25 kts 315°
2026-05-04 19:34 57.04752 -135.36238 33 ft 27 kts 315°
2026-05-04 19:34 57.04893 -135.36305 31 ft 18 kts 358°
2026-05-04 19:34 57.05007 -135.36414 31 ft 20 kts 314°
2026-05-04 19:35 57.05070 -135.36431 32 ft 10 kts 43°
2026-05-04 19:35 57.05084 -135.36406 31 ft 0 kts 46°